| time (UTC) | temp F | wind direction | speed MPH | gust MPH | rain 1hr in | rain 24hr in | rain mn in | humidity % | barometer mb |
| 20260503003039 | 68 | 360 | 8.0 | 11.0 | 0.00 | 0.00 | 0.00 | 31 | 1011.3 |
| 20260503001542 | 69 | 360 | 9.0 | 12.0 | 0.00 | 0.00 | 0.00 | 30 | 1011.4 |
| 20260503000022 | 68 | 360 | 6.0 | 14.0 | 0.00 | 0.00 | 0.00 | 31 | 1011.5 |
| 20260502234523 | 69 | 360 | 7.0 | 11.0 | 0.00 | 0.00 | 0.00 | 32 | 1011.5 |
| 20260502233025 | 69 | 87 | 7.0 | 12.0 | 0.00 | 0.00 | 0.00 | 31 | 1011.7 |
| 20260502231520 | 68 | 360 | 6.0 | 12.0 | 0.00 | 0.00 | 0.00 | 30 | 1011.8 |
| 20260502230026 | 71 | 80 | 2.0 | 10.0 | 0.00 | 0.00 | 0.00 | 29 | 1012.1 |
| 20260502224518 | 69 | 360 | 1.0 | 3.0 | 0.00 | 0.00 | 0.00 | 30 | 1012.2 |
| 20260502223018 | 68 | 350 | 2.0 | 8.0 | 0.00 | 0.00 | 0.00 | 31 | 1012.5 |
| 20260502221517 | 69 | 26 | 2.0 | 15.0 | 0.00 | 0.00 | 0.00 | 29 | 1012.5 |
| 20260502220017 | 69 | 360 | 9.0 | 14.0 | 0.00 | 0.00 | 0.00 | 29 | 1012.6 |
| 20260502214516 | 70 | 360 | 6.0 | 10.0 | 0.00 | 0.00 | 0.00 | 29 | 1012.7 |
| 20260502213017 | 69 | 360 | 4.0 | 10.0 | 0.00 | 0.00 | 0.00 | 30 | 1012.8 |
| 20260502211517 | 69 | 360 | 6.0 | 11.0 | 0.00 | 0.00 | 0.00 | 30 | 1013.0 |
| 20260502210013 | 68 | 26 | 3.0 | 10.0 | 0.00 | 0.00 | 0.00 | 31 | 1013.1 |
| 20260502204513 | 68 | 360 | 4.0 | 13.0 | 0.00 | 0.00 | 0.00 | 32 | 1013.2 |
| 20260502203009 | 69 | 325 | 5.0 | 9.0 | 0.00 | 0.00 | 0.00 | 32 | 1013.4 |
| 20260502201509 | 67 | 36 | 6.0 | 14.0 | 0.00 | 0.00 | 0.00 | 32 | 1013.5 |
| 20260502200008 | 68 | 360 | 8.0 | 16.0 | 0.00 | 0.00 | 0.00 | 31 | 1013.8 |
| 20260502194504 | 67 | 360 | 3.0 | 13.0 | 0.00 | 0.00 | 0.00 | 33 | 1013.9 |
| 20260502193006 | 66 | 360 | 5.0 | 13.0 | 0.00 | 0.00 | 0.00 | 33 | 1014.1 |
| 20260502191502 | 66 | 360 | 4.0 | 14.0 | 0.00 | 0.00 | 0.00 | 34 | 1014.3 |
| 20260502190001 | 65 | 360 | 6.0 | 15.0 | 0.00 | 0.00 | 0.00 | 35 | 1014.4 |
| 20260502184612 | 65 | 360 | 12.0 | 19.0 | 0.00 | 0.00 | 0.00 | 35 | 1014.7 |
| 20260502183104 | 64 | 360 | 8.0 | 17.0 | 0.00 | 0.00 | 0.00 | 35 | 1014.8 |
| 20260502181608 | 64 | 360 | 6.0 | 14.0 | 0.00 | 0.00 | 0.00 | 36 | 1015.0 |
| 20260502163052 | 58 | 360 | 4.0 | 12.0 | 0.00 | 0.00 | 0.00 | 42 | 1015.3 |
| 20260502161539 | 58 | 360 | 5.0 | 11.0 | 0.00 | 0.00 | 0.00 | 43 | 1015.3 |
| 20260502151531 | 56 | 118 | 1.0 | 4.0 | 0.00 | 0.00 | 0.00 | 45 | 1015.4 |
| 20260502123000 | 43 | 360 | 5.0 | 10.0 | 0.00 | 0.00 | 0.00 | 66 | 1013.6 |
| 20260502121559 | 42 | 360 | 6.0 | 9.0 | 0.00 | 0.00 | 0.00 | 65 | 1013.4 |
| 20260502114559 | 43 | 360 | 3.0 | 6.0 | 0.00 | 0.00 | 0.00 | 61 | 1013.4 |
| 20260502113054 | 43 | 360 | 4.0 | 10.0 | 0.00 | 0.00 | 0.00 | 60 | 1013.2 |
| 20260502111554 | 42 | 360 | 3.0 | 6.0 | 0.00 | 0.00 | 0.00 | 59 | 1013.0 |
| 20260502110059 | 42 | 360 | 1.0 | 3.0 | 0.00 | 0.00 | 0.00 | 57 | 1013.1 |
| 20260502104552 | 42 | 360 | 2.0 | 4.0 | 0.00 | 0.00 | 0.00 | 56 | 1012.8 |
| 20260502103056 | 42 | 360 | 2.0 | 4.0 | 0.00 | 0.00 | 0.00 | 55 | 1012.7 |
| 20260502101606 | 42 | 360 | 3.0 | 5.0 | 0.00 | 0.00 | 0.00 | 54 | 1012.7 |
| 20260502100105 | 43 | 360 | 5.0 | 8.0 | 0.00 | 0.00 | 0.00 | 52 | 1012.5 |
| 20260502071523 | 46 | 360 | 1.0 | 3.0 | 0.00 | 0.00 | 0.00 | 49 | 1011.7 |
| 20260502070031 | 47 | 360 | 2.0 | 5.0 | 0.00 | 0.00 | 0.00 | 49 | 1011.7 |
| 20260502064519 | 46 | 360 | 0.0 | 3.0 | 0.00 | 0.00 | 0.00 | 45 | 1011.6 |
| 20260502063016 | 47 | 360 | 2.0 | 4.0 | 0.00 | 0.00 | 0.00 | 44 | 1011.5 |
| 20260502061513 | 49 | 360 | 0.0 | 1.0 | 0.00 | 0.00 | 0.00 | 41 | 1011.5 |
| 20260502060008 | 50 | 360 | 3.0 | 6.0 | 0.00 | 0.00 | 0.00 | 40 | 1011.4 |
| 20260502054507 | 51 | 360 | 3.0 | 10.0 | 0.00 | 0.00 | 0.00 | 39 | 1011.3 |
| 20260502053007 | 50 | 360 | 4.0 | 8.0 | 0.00 | 0.00 | 0.00 | 41 | 1011.3 |
| 20260502051519 | 51 | 360 | 4.0 | 8.0 | 0.00 | 0.00 | 0.00 | 42 | 1011.2 |
| 20260502050007 | 52 | 360 | 3.0 | 6.0 | 0.00 | 0.00 | 0.00 | 42 | 1011.2 |
| 20260502044506 | 53 | 360 | 7.0 | 9.0 | 0.00 | 0.00 | 0.00 | 43 | 1011.2 |
| 20260502043012 | 55 | 360 | 4.0 | 8.0 | 0.00 | 0.00 | 0.00 | 40 | 1011.2 |
| 20260502041506 | 55 | 360 | 6.0 | 10.0 | 0.00 | 0.00 | 0.00 | 39 | 1011.0 |
| 20260502040005 | 57 | 360 | 2.0 | 4.0 | 0.00 | 0.00 | 0.00 | 37 | 1010.6 |
| 20260502034504 | 57 | 360 | 4.0 | 5.0 | 0.00 | 0.00 | 0.00 | 36 | 1010.6 |
| 20260502033005 | 58 | 360 | 2.0 | 3.0 | 0.00 | 0.00 | 0.00 | 35 | 1010.6 |
| 20260502031503 | 60 | 360 | 3.0 | 4.0 | 0.00 | 0.00 | 0.00 | 34 | 1010.5 |
| 20260502030004 | 61 | 360 | 2.0 | 3.0 | 0.00 | 0.00 | 0.00 | 31 | 1010.4 |
| 20260502024507 | 63 | 360 | 3.0 | 5.0 | 0.00 | 0.00 | 0.00 | 30 | 1010.2 |
| 20260502023002 | 65 | 360 | 2.0 | 4.0 | 0.00 | 0.00 | 0.00 | 29 | 1010.1 |
| 20260502021501 | 68 | 227 | 1.0 | 3.0 | 0.00 | 0.00 | 0.00 | 25 | 1010.1 |
| 20260502020104 | 72 | 228 | 2.0 | 3.0 | 0.00 | 0.00 | 0.00 | 24 | 1010.0 |
| 20260502014605 | 75 | 360 | 1.0 | 3.0 | 0.00 | 0.00 | 0.00 | 20 | 1010.0 |
| 20260502013059 | 77 | 360 | 1.0 | 3.0 | 0.00 | 0.00 | 0.00 | 19 | 1010.1 |
| 20260502011604 | 77 | 360 | 3.0 | 5.0 | 0.00 | 0.00 | 0.00 | 16 | 1010.2 |
| 20260502010058 | 77 | 360 | 2.0 | 6.0 | 0.00 | 0.00 | 0.00 | 16 | 1010.2 |
| 20260502004610 | 76 | 233 | 3.0 | 8.0 | 0.00 | 0.00 | 0.00 | 17 | 1010.4 |